This is the latest recevied weather packets stored in our database for station/object VE3VGJ. If no packets are shown the sender has not sent any weather packets the latest 10 day(s).
| Time | Temp. | Humidity | Pressure | Rain* | Wind** | Luminosity | Snow |
|---|---|---|---|---|---|---|---|
| 1778069462 | 5.56° C | 95% | 1009.2 hPa | 0 mm | - | 53 W/m² | - |
| 1778069161 | 5.56° C | 95% | 1009.2 hPa | 0 mm | - | 47 W/m² | - |
| 1778068857 | 5.56° C | 95% | 1009 hPa | 0 mm | - | 44 W/m² | - |
| 1778068556 | 5.56° C | 95% | 1009.1 hPa | 0 mm | - | 47 W/m² | - |
| 1778068254 | 5.56° C | 95% | 1009.2 hPa | 0 mm | - | 45 W/m² | - |
| 1778067951 | 5.56° C | 95% | 1009 hPa | 0 mm | - | 37 W/m² | - |
| 1778067649 | 5.56° C | 95% | 1009 hPa | 0 mm | - | 46 W/m² | - |
| 1778067347 | 5.56° C | 95% | 1008.9 hPa | 0 mm | - | 39 W/m² | - |
| 1778067044 | 5.56° C | 95% | 1008.8 hPa | 1.78 mm | - | 39 W/m² | - |
| 1778066740 | 5.56° C | 95% | 1009 hPa | 1.78 mm | - | 40 W/m² | - |
| 1778066438 | 5.56° C | 95% | 1009.4 hPa | 0 mm | - | 23 W/m² | - |
| 1778066136 | 5.56° C | 95% | 1009.2 hPa | 0 mm | - | 20 W/m² | - |
| 1778065832 | 5.56° C | 95% | 1009 hPa | 0 mm | - | 20 W/m² | - |
| 1778065530 | 5.56° C | 95% | 1009.1 hPa | 0 mm | - | 11 W/m² | - |
| 1778065227 | 5.56° C | 95% | 1009.3 hPa | 0 mm | - | 11 W/m² | - |
| 1778064923 | 5.56° C | 95% | 1009 hPa | 1.27 mm | - | 15 W/m² | - |
| 1778064621 | 6.11° C | 95% | 1009.1 hPa | 1.27 mm | - | 10 W/m² | - |
| 1778064319 | 5.56° C | 95% | 1008.9 hPa | 0 mm | - | 13 W/m² | - |
| 1778064016 | 5.56° C | 95% | 1008.6 hPa | 1.78 mm | - | 10 W/m² | - |
| 1778063713 | 5.56° C | 94% | 1008.5 hPa | 1.78 mm | - | 9 W/m² | - |
| 1778063410 | 6.11° C | 94% | 1008.6 hPa | 0 mm | - | 6 W/m² | - |
| 1778063109 | 6.11° C | 94% | 1008.5 hPa | 0 mm | - | 4 W/m² | - |
| 1778062805 | 6.11° C | 94% | 1008.6 hPa | 0 mm | - | 3 W/m² | - |
| 1778062501 | 6.11° C | 94% | 1008.6 hPa | 0 mm | - | 2 W/m² | - |
| 1778062199 | 6.11° C | 94% | 1008.7 hPa | 1.27 mm | - | 1 W/m² | - |
* Rain latest hour (hover to see other rain measurements)
** Current wind speed in m/s (hover to see current wind gust speed)